Temperature
15 15 15 15 15 15 15 15 15 15 15 15 15 15 15 15 14 14 14 14 14 14 14 14 14 14 14 14 14 14 14 14 14 14 14 14 14 14
15 15 15 15 15 15 15 15 15 14 14 15 15 15 15 14 14 14 14 14 14 14 14 14 14 14 14 14 14 14 14 14 14 14 14 14 14 14
16 16 16 15 15 15 15 15 15 14 14 15 15 15 14 14 14 14 14 14 14 14 14 14 14 14 13 13 13 14 14 14 14 14 14 14 14 14
16 16 16 16 16 15 15 15 15 15 14 15 15 15 15 14 14 14 14 14 14 14 14 14 14 14 13 13 13 13 13 13 13 13 13 13 13 13
16 16 16 15 16 15 15 15 15 14 14 14 15 15 15 15 14 14 14 14 14 14 14 14 14 14 14 13 13 13 13 13 13 13 13 13 13 13
16 16 15 15 15 15 15 15 15 14 14 14 14 15 15 15 14 14 14 15 14 14 14 14 14 14 14 14 13 13 13 13 13 13 13 13 13 13
15 15 15 15 15 14 14 14 14 14 14 14 14 14 15 15 15 14 14 14 14 14 14 14 14 14 14 14 14 13 13 13 13 13 13 13 13 13
15 15 15 14 14 14 14 14 14 13 13 13 13 13 14 14 14 14 13 13 14 14 14 14 14 14 14 14 14 13 13 13 13 13 12 12 12 12
14 14 14 14 14 14 13 13 13 13 13 13 13 13 13 13 13 13 13 13 13 13 13 13 13 13 14 13 13 13 13 13 13 13 12 12 12 12
13 13 13 13 13 13 13 13 13 13 13 12 12 12 12 12 12 12 12 12 12 13 12 12 13 13 13 13 13 13 13 13 13 13 12 12 12 12
13 12 12 12 12 12 12 12 12 12 12 12 12 12 12 12 12 11 11 11 11 12 12 12 12 13 13 13 13 13 13 13 13 13 12 12 12 12
12 12 11 11 11 11 11 11 11 11 11 11 11 11 11 11 11 11 11 11 10 11 11 11 12 12 12 13 13 13 13 13 13 12 12 12 12 12
11 11 11 10 10 10 10 10 10 10 10 10 10 11 11 11 11 11 11 10 10 10 11 11 11 11 11 11 12 12 12 12 12 12 12 12 12 12
10 9 9 9 9 9 9 9 9 9 9 9 9 9 9 10 10 10 10 10 10 10 10 10 10 10 10 10 10 11 12 12 12 12 12 12 12 12
8 8 8 8 8 8 8 8 8 8 8 8 8 8 8 8 8 9 9 9 9 9 9 9 9 10 10 9 10 10 10 11 11 11 11 11 12 12
8 8 7 7 7 7 7 7 7 7 7 7 7 7 7 7 7 8 8 8 8 9 9 9 9 9 9 9 9 10 10 10 11 11 11 11 11 11
6 6 6 6 6 6 6 6 6 6 6 6 6 6 6 6 7 7 7 7 7 8 8 9 9 9 9 9 9 9 9 10 10 10 10 10 11 11
5 5 5 5 5 5 5 5 5 5 5 5 5 5 5 5 6 6 6 6 6 7 7 8 8 8 9 9 9 9 9 9 10 10 10 10 10 11
5 4 4 4 4 4 4 4 4 4 4 4 4 4 5 5 5 5 5 6 6 6 7 7 7 7 7 7 9 9 9 9 9 9 9 10 10 10
4 3 3 3 3 3 3 3 3 3 4 4 4 4 4 4 4 5 5 5 5 6 6 6 7 7 7 7 7 8 9 8 9 9 9 9 10 10
3 3 3 3 3 3 2 2 3 3 3 3 3 3 3 4 4 4 4 4 5 5 5 6 6 7 7 7 7 8 8 9 9 9 9 9 9 9
2 2 2 2 2 2 2 2 2 2 2 3 3 3 3 3 3 4 4 4 4 5 5 6 6 6 6 6 7 7 8 8 8 9 9 9 9 9
2 2 2 2 1 1 1 1 2 2 2 2 2 2 3 3 3 4 4 4 4 4 5 5 6 6 6 6 7 7 7 8 8 8 9 9 9 9
Wind_Speed
3 3 2 2 1 2 2 4 4 1 3 4 3 3 5 9 12 13 13 14 14 14 14 14 14 14 14 13 13 13 13 13 13 13 14 14 15 17
4 4 3 3 2 1 2 2 4 5 3 3 3 3 3 6 11 14 15 15 16 17 17 17 17 17 17 17 16 16 16 16 16 15 15 15 15 15
5 6 6 5 4 3 2 2 3 4 4 4 3 3 3 4 5 10 14 15 15 18 19 20 21 21 21 20 20 19 18 18 18 18 17 17 16 16
7 7 7 6 6 5 4 4 4 4 5 6 4 3 5 5 5 6 9 13 15 18 20 21 22 23 23 23 22 22 21 21 20 19 19 19 18 18
9 9 8 7 7 6 6 6 5 5 5 5 6 4 5 5 5 6 6 7 12 16 18 21 22 23 24 24 24 24 24 23 22 22 21 21 20 19
9 9 9 9 9 9 8 8 7 6 6 6 7 6 6 5 4 6 6 6 7 10 14 16 18 21 23 24 24 25 25 25 24 24 24 23 22 22
9 9 10 11 13 11 9 8 8 8 7 7 8 6 7 5 6 5 7 7 6 6 6 8 9 10 14 19 22 24 26 26 26 26 26 25 25 24
8 8 9 10 12 14 15 14 12 10 10 9 9 9 11 8 7 7 7 6 7 4 5 8 6 8 9 14 19 23 25 26 27 27 27 27 27 27
6 6 7 6 7 7 9 12 13 15 15 12 12 13 12 9 8 8 8 9 10 6 4 7 6 8 9 16 21 24 26 27 27 27 27 28 28 28
3 3 4 4 4 4 5 6 7 8 11 11 11 13 12 10 10 12 12 11 9 7 6 8 8 8 9 12 21 24 26 27 27 28 28 28 28 28
3 3 2 2 5 6 4 5 7 8 10 12 12 14 17 17 13 8 8 8 11 9 7 7 8 9 9 10 15 23 26 27 28 28 28 28 28 27
3 4 4 5 7 7 4 5 8 9 9 11 10 11 11 13 15 12 11 11 11 8 7 7 9 7 7 8 9 12 16 22 26 27 27 27 26 17
2 3 4 7 9 10 8 6 11 11 9 9 10 9 9 9 9 9 10 12 13 12 7 6 8 8 9 7 6 7 8 9 11 15 22 25 26 17
2 3 5 10 12 13 10 12 15 12 7 7 8 9 9 10 10 10 10 11 14 15 12 10 9 10 10 11 8 6 7 8 9 9 9 16 19 22
3 7 10 13 13 10 12 14 12 7 6 7 8 9 9 9 9 8 9 10 11 14 16 13 12 11 11 12 11 9 7 6 8 9 9 9 9 8
5 8 11 11 9 9 10 9 6 6 7 7 8 8 8 8 8 8 9 8 9 10 10 13 12 13 13 13 12 12 10 8 7 9 10 9 8 8
5 4 4 5 6 6 7 7 7 6 6 6 7 8 8 8 9 8 7 8 9 10 10 8 9 10 13 12 12 13 12 11 11 9 8 10 10 10
3 3 5 5 6 7 8 8 7 7 7 7 7 8 8 9 10 9 8 9 10 10 10 9 8 7 7 9 14 13 12 12 11 10 10 11 13 10
2 4 5 6 6 7 7 8 8 8 8 8 8 9 9 9 9 10 9 9 10 10 10 9 8 9 12 14 9 13 13 12 10 10 11 12 13 11
3 5 6 6 7 7 7 8 9 9 8 8 9 9 9 10 10 11 10 10 11 11 11 9 9 10 12 13 11 9 14 13 11 12 11 10 10 11
6 6 7 7 7 7 8 8 9 9 10 9 9 9 9 10 11 11 11 13 12 11 11 11 11 13 10 7 8 9 8 14 15 11 9 8 8 7
7 7 8 8 8 8 8 8 9 10 10 10 10 10 10 10 11 13 12 12 11 11 12 12 10 8 6 9 12 12 10 8 12 17 16 13 8 8
7 8 8 8 8 8 8 10 11 10 10 10 10 10 11 11 12 12 12 12 12 12 12 11 9 7 8 8 10 10 11 9 7 7 10 15 19 19
Wind_Direction
201 200 197 221 196 177 166 156 152 189 283 287 293 277 236 226 221 212 218 225 230 236 242 248 252 255 256 256 255 254 253 254 255 257 258 259 256 252
206 208 219 225 227 195 179 176 164 169 223 265 262 268 248 240 236 226 230 236 238 241 245 249 252 255 257 256 255 254 253 253 254 255 256 257 258 256
216 211 224 221 222 223 204 190 184 171 214 264 261 267 253 255 253 239 242 242 246 248 249 252 254 255 256 256 255 254 253 253 253 253 253 254 256 257
222 219 227 226 226 226 220 224 220 203 206 250 268 265 254 250 248 248 249 248 246 251 252 254 255 255 255 254 252 252 251 252 252 252 252 252 252 253
219 220 226 222 229 228 225 229 232 231 214 233 261 255 259 258 262 266 259 255 256 256 255 256 256 255 255 253 251 250 250 251 251 251 251 251 251 251
223 223 224 220 225 226 229 228 229 234 232 240 258 261 259 256 245 259 273 261 259 260 258 257 256 256 255 253 251 251 251 251 251 250 250 250 249 249
233 231 231 228 226 225 229 225 224 232 235 241 254 263 262 257 250 244 258 267 265 248 256 258 253 253 255 254 253 252 252 252 251 250 249 248 248 248
237 243 246 244 242 238 238 233 223 229 237 240 247 249 257 249 249 247 251 259 270 246 226 256 237 247 248 248 250 250 250 251 250 249 248 247 247 246
240 248 260 263 255 253 254 253 247 242 238 240 247 251 254 248 241 247 244 243 252 244 215 258 248 250 249 251 249 249 250 251 251 250 248 247 246 245
266 266 266 287 313 303 286 281 274 267 259 253 252 257 257 254 243 248 253 256 255 248 218 251 254 251 253 249 251 249 250 251 251 250 249 247 246 245
357 9 13 3 356 1 340 312 302 295 291 284 274 269 267 264 259 260 257 256 263 258 224 235 254 257 255 253 252 250 248 249 250 249 248 246 245 244
5 5 22 17 359 357 336 308 297 294 300 304 295 288 277 270 262 248 249 255 262 263 232 228 249 247 262 252 248 248 249 249 248 247 246 244 243 239
349 329 320 331 328 322 310 277 273 281 287 283 284 283 279 272 264 253 244 245 253 256 237 221 244 241 244 257 257 246 239 242 244 245 245 243 241 226
317 306 307 317 317 312 305 289 288 290 280 276 277 277 277 275 272 264 256 252 251 255 253 237 243 244 249 256 257 253 243 239 236 239 237 239 239 232
299 304 309 311 313 307 300 301 303 295 285 280 279 277 273 273 276 277 274 267 264 261 260 246 244 246 244 251 254 247 250 245 231 236 238 233 231 219
326 317 316 314 311 302 304 307 301 290 287 283 284 282 282 281 280 277 278 278 278 278 264 252 244 243 249 250 250 250 243 240 234 233 235 238 232 221
325 326 329 329 327 322 317 311 308 309 305 297 297 300 297 293 289 284 276 277 275 277 280 272 252 244 243 246 252 250 247 246 242 235 230 241 241 231
351 327 318 315 313 313 314 313 310 307 305 305 303 299 298 297 295 291 283 278 277 275 275 274 272 271 266 254 234 245 246 245 242 233 228 239 247 239
346 312 307 306 306 306 307 307 307 303 300 298 298 298 298 297 293 291 288 283 279 277 275 270 262 258 264 270 252 223 236 244 240 237 232 231 241 243
325 312 311 309 306 306 307 306 305 305 303 299 297 297 296 294 293 290 287 283 283 282 280 272 260 253 254 263 268 255 227 234 240 240 238 235 240 246
324 318 313 311 310 309 308 307 306 304 303 301 297 296 297 294 290 288 287 285 282 282 281 277 269 259 258 258 263 261 247 228 227 232 227 226 232 233
329 325 320 316 314 313 313 311 309 308 308 306 303 300 299 297 293 291 287 285 283 281 281 280 277 271 258 257 261 264 263 254 238 235 228 216 210 219
327 323 320 318 317 316 315 313 310 308 307 305 303 301 300 298 296 293 289 284 282 282 281 281 280 271 265 261 263 264 261 256 247 240 242 234 231 238
Height
1556 1557 1558 1558 1559 1559 1559 1560 1561 1560 1559 1559 1559 1559 1559 1559 1559 1559 1558 1557 1557 1556 1555 1554 1554 1553 1553 1554 1554 1555 1555 1556 1556 1557 1557 1558 1559 1559
1554 1555 1555 1556 1557 1557 1557 1557 1557 1558 1557 1557 1557 1557 1557 1557 1556 1556 1555 1554 1553 1552 1551 1551 1550 1549 1549 1549 1549 1549 1550 1550 1550 1551 1551 1552 1553 1554
1551 1552 1553 1554 1554 1555 1555 1555 1555 1555 1554 1554 1554 1554 1553 1553 1553 1552 1552 1551 1550 1549 1548 1547 1546 1546 1545 1545 1545 1544 1544 1544 1545 1545 1545 1546 1547 1548
1549 1549 1550 1551 1551 1551 1552 1552 1552 1552 1551 1550 1550 1550 1550 1549 1549 1548 1547 1547 1546 1545 1544 1543 1542 1541 1541 1540 1540 1540 1539 1539 1539 1539 1539 1540 1540 1541
1545 1546 1546 1547 1547 1548 1548 1548 1548 1548 1547 1546 1545 1545 1545 1545 1544 1543 1542 1542 1541 1540 1539 1538 1538 1537 1536 1536 1535 1535 1534 1534 1533 1533 1533 1533 1534 1534
1541 1542 1542 1543 1543 1543 1543 1543 1544 1543 1543 1541 1540 1539 1539 1539 1539 1537 1536 1536 1535 1535 1534 1533 1532 1532 1531 1531 1530 1530 1529 1528 1528 1527 1527 1527 1527 1527
1536 1537 1537 1538 1538 1538 1538 1538 1538 1537 1537 1536 1534 1533 1532 1533 1532 1532 1530 1529 1528 1529 1527 1527 1526 1525 1525 1524 1524 1524 1523 1523 1522 1522 1521 1521 1521 1521
1531 1532 1532 1532 1532 1532 1532 1532 1532 1531 1530 1529 1528 1527 1525 1526 1526 1525 1524 1522 1520 1522 1521 1519 1519 1517 1517 1517 1517 1517 1516 1516 1516 1515 1515 1515 1514 1514
1525 1525 1526 1526 1525 1525 1525 1525 1524 1524 1524 1523 1520 1519 1519 1519 1519 1517 1516 1514 1512 1513 1513 1509 1510 1508 1509 1509 1509 1509 1508 1508 1508 1508 1508 1508 1508 1508
1519 1519 1519 1518 1518 1517 1517 1516 1516 1515 1515 1514 1513 1511 1511 1510 1510 1509 1507 1505 1503 1503 1504 1500 1499 1499 1499 1499 1500 1499 1499 1499 1499 1499 1500 1500 1500 1500
1513 1513 1513 1512 1511 1510 1509 1507 1506 1506 1506 1505 1503 1502 1501 1501 1501 1499 1497 1495 1491 1491 1493 1491 1489 1489 1488 1488 1489 1489 1490 1490 1490 1490 1491 1491 1492 1492
1508 1508 1507 1506 1505 1504 1502 1500 1498 1497 1496 1494 1493 1492 1491 1491 1490 1489 1487 1485 1481 1479 1481 1481 1479 1479 1476 1476 1478 1478 1479 1479 1480 1480 1481 1482 1483 1483
1503 1502 1501 1500 1499 1497 1495 1493 1491 1488 1486 1484 1482 1481 1480 1479 1479 1478 1477 1475 1472 1469 1470 1471 1469 1468 1467 1464 1465 1467 1468 1468 1469 1470 1471 1472 1474 1474
1498 1497 1495 1493 1491 1490 1487 1485 1483 1480 1477 1475 1473 1471 1470 1468 1467 1466 1465 1464 1462 1460 1460 1461 1458 1458 1457 1454 1454 1455 1456 1458 1459 1459 1461 1462 1463 1464
1493 1491 1489 1487 1484 1482 1480 1477 1475 1472 1469 1466 1464 1462 1461 1459 1457 1456 1454 1452 1450 1449 1449 1449 1448 1447 1446 1444 1443 1444 1445 1445 1448 1449 1450 1451 1452 1453
1488 1486 1483 1481 1478 1476 1473 1471 1468 1466 1463 1460 1457 1454 1452 1450 1448 1446 1444 1442 1439 1437 1437 1438 1437 1436 1434 1433 1433 1432 1433 1434 1435 1437 1438 1439 1441 1442
1482 1480 1478 1475 1472 1469 1467 1464 1462 1459 1457 1453 1450 1447 1444 1442 1439 1438 1435 1433 1430 1427 1426 1426 1426 1425 1423 1422 1421 1420 1421 1422 1423 1425 1426 1426 1428 1430
1478 1475 1472 1470 1467 1464 1461 1458 1456 1453 1450 1447 1444 1441 1437 1434 1431 1429 1427 1424 1421 1418 1417 1415 1415 1413 1411 1410 1411 1410 1410 1410 1412 1413 1414 1415 1415 1417
1474 1471 1468 1465 1462 1459 1456 1453 1450 1447 1444 1441 1437 1434 1430 1427 1423 1420 1418 1416 1413 1410 1408 1407 1406 1404 1401 1397 1396 1400 1399 1399 1400 1401 1402 1402 1403 1405
1469 1466 1463 1460 1457 1453 1450 1447 1443 1440 1437 1433 1430 1426 1423 1420 1416 1413 1410 1407 1404 1401 1398 1397 1396 1395 1392 1390 1387 1386 1389 1389 1389 1389 1390 1392 1393 1395
1465 1461 1458 1455 1451 1448 1444 1440 1437 1433 1430 1426 1423 1419 1416 1412 1408 1405 1401 1398 1396 1392 1389 1387 1386 1386 1383 1381 1378 1374 1376 1378 1379 1379 1380 1382 1383 1384
1460 1457 1453 1449 1446 1442 1438 1434 1431 1427 1423 1419 1416 1412 1408 1405 1401 1397 1393 1390 1387 1384 1381 1378 1377 1376 1374 1371 1368 1366 1366 1367 1368 1369 1370 1372 1372 1373
1456 1452 1448 1444 1440 1436 1432 1428 1424 1420 1416 1413 1409 1405 1401 1397 1393 1389 1385 1382 1379 1376 1373 1370 1368 1367 1365 1363 1361 1359 1358 1358 1359 1359 1360 1362 1364 1365